{"data":{"norad_id":64928,"intl_designator":"2025-157AA","name":"STARLINK-34248","alt_names":[],"object_type":"PAYLOAD","status":"ACTIVE","operator":null,"country":"US","launch_date":"2025-07-26","launch_site_code":"AFETR","launch_vehicle":null,"mission":null,"orbit_class":"UNKNOWN","rcs_meters":null,"size_class":null,"mass_kg":null,"dimensions":null,"purposes":["comms"],"wikipedia_slug":null,"has_3d_model":false,"image_url":null,"decayed_at":null,"tle_current":{"epoch":"2026-09-19T22:29:52.007136Z","epoch_age_seconds":172848,"freshness":"STALE","line1":"1 64928U 25157AA  26262.93740749  .00023518  00000+0  70490-3 0  9991","line2":"2 64928  53.1579 160.5915 0001555  71.4849 288.6322 15.34403847 65907","mean_motion":15.34403847,"eccentricity":0.0001555,"inclination_deg":53.1579,"raan_deg":160.5915,"arg_perigee_deg":71.4849,"mean_anomaly_deg":288.6322,"bstar":0.0007049,"rev_number":6590,"period_min":93.847522789742,"perigee_km":461.62805725692,"apogee_km":463.75555501563,"semimajor_km":6840.8288061363,"source":"CELESTRAK","updated_at":"2026-09-21T09:00:35.484735Z"}}}